Date String (YYYY-MM-DD hh:mm:ss) UTC,Instrument flags,Ambient pressure (hPa),Sample flow (lpm),Bypass flow (lpm),Sample temperature (°C),Ambient temperature (°C),ASC tube jacket temperature (°C),LED temperature (°C),Box temperature (°C),Sample RH (%),Span deviation,Mass concentration (μg/m³),Mass concentration (μg/m³),Mass concentration (μg/m³)
DateTimeUTC,F1_M11,P_M11,Q1_M11,Q2_M11,T1_M11,T2_M11,T3_M11,T4_M11,T5_M11,U1_M11,ZSPAN_M11,X0_M11,X2_M11,X1_M11
2022-03-10 01:00:00,,0823.1,5.00,0.00,22.0,20.6,00.0,31.2,23.5,06.2,0000.0,0004.91,0003.42,0003.15
2022-03-10 01:01:00,,0823.1,5.00,0.00,22.0,21.4,00.0,31.2,23.6,06.2,0000.0,0004.70,0003.37,0003.13
2022-03-10 01:02:00,,0823.1,4.99,0.00,22.1,22.3,00.0,31.2,23.9,06.2,0000.0,0004.68,0003.36,0003.10
2022-03-10 01:03:00,,0823.1,5.01,0.00,22.3,22.7,00.0,31.3,24.2,06.1,0000.0,0004.74,0003.37,0003.09
2022-03-10 01:04:00,,0823.1,4.99,0.00,22.3,22.4,00.0,31.3,24.1,06.1,0000.0,0004.72,0003.37,0003.07
2022-03-10 01:05:00,,0823.1,5.01,0.00,22.3,22.1,00.0,31.2,24.0,06.1,0000.0,0004.64,0003.35,0003.05
2022-03-10 01:06:00,,0823.1,5.00,0.00,22.2,21.8,00.0,31.2,23.9,06.1,0000.0,0004.63,0003.34,0003.03
2022-03-10 01:07:00,,0823.1,5.00,0.00,22.2,21.6,00.0,31.2,23.8,06.1,0000.0,0004.69,0003.35,0003.04
2022-03-10 01:08:00,,0823.1,4.99,0.00,22.1,21.4,00.0,31.2,23.7,06.2,0000.0,0004.73,0003.36,0003.06
2022-03-10 01:09:00,,0823.2,5.02,0.00,22.1,21.2,00.0,31.2,23.6,06.2,0000.0,0004.76,0003.38,0003.08
2022-03-10 01:10:00,,0823.2,5.00,0.00,22.0,21.1,00.0,31.2,23.6,06.2,0000.0,0004.81,0003.39,0003.08
2022-03-10 01:11:00,,0823.2,4.99,0.00,22.0,21.3,00.0,31.1,23.6,06.2,0000.0,0004.83,0003.41,0003.11
2022-03-10 01:12:00,,0823.2,5.00,0.00,22.1,22.0,00.0,31.2,23.8,06.2,0000.0,0004.82,0003.41,0003.12
2022-03-10 01:13:00,,0823.2,5.00,0.00,22.2,22.8,00.0,31.2,24.1,06.2,0000.0,0004.83,0003.41,0003.12
2022-03-10 01:14:00,,0823.3,5.00,0.00,22.3,22.8,00.0,31.2,24.2,06.1,0000.0,0005.09,0003.38,0003.12
2022-03-10 01:15:00,,0823.4,5.00,0.00,22.3,22.5,00.0,31.2,24.1,06.1,0000.0,0005.29,0003.42,0003.14
2022-03-10 01:16:00,,0823.4,5.00,0.00,22.3,22.2,00.0,31.2,24.0,06.1,0000.0,0005.28,0003.42,0003.14
2022-03-10 01:17:00,,0823.6,5.00,0.00,22.3,21.8,00.0,31.2,23.9,06.1,0000.0,0005.25,0003.42,0003.15
2022-03-10 01:18:00,,0823.7,5.02,0.00,22.2,21.4,00.0,31.2,23.8,06.1,0000.0,0005.22,0003.42,0003.16
2022-03-10 01:19:00,,0823.6,5.03,0.00,22.1,21.1,00.0,31.2,23.7,06.1,0000.0,0005.24,0003.43,0003.15
2022-03-10 01:20:00,,0823.6,4.98,0.00,22.0,20.9,00.0,31.1,23.6,06.2,0000.0,0005.22,0003.42,0003.16
2022-03-10 01:21:00,,0823.7,5.01,0.00,22.0,20.7,00.0,31.1,23.5,06.2,0000.0,0005.32,0003.43,0003.16
2022-03-10 01:22:00,,0823.7,4.99,0.00,21.9,20.8,00.0,31.1,23.5,06.2,0000.0,0005.25,0003.42,0003.15
2022-03-10 01:23:00,,0823.7,5.01,0.00,22.0,21.6,00.0,31.1,23.7,06.2,0000.0,0005.18,0003.40,0003.14
2022-03-10 01:24:00,,0823.7,4.99,0.00,22.1,22.5,00.0,31.2,24.0,06.2,0000.0,0005.17,0003.40,0003.14
2022-03-10 01:25:00,,0823.7,5.01,0.00,22.3,22.8,00.0,31.2,24.2,06.1,0000.0,0004.88,0003.40,0003.14
2022-03-10 01:26:00,,0823.7,4.99,0.00,22.3,22.6,00.0,31.2,24.1,06.1,0000.0,0004.71,0003.40,0003.14
2022-03-10 01:27:00,,0823.7,5.01,0.00,22.3,22.2,00.0,31.2,24.0,06.1,0000.0,0004.55,0003.38,0003.15
2022-03-10 01:28:00,,0823.7,5.00,0.00,22.2,21.9,00.0,31.2,23.9,06.1,0000.0,0004.63,0003.40,0003.16
2022-03-10 01:29:00,,0823.7,5.00,0.00,22.2,21.5,00.0,31.2,23.8,06.1,0000.0,0004.74,0003.43,0003.17
2022-03-10 01:30:00,,0823.7,5.00,0.00,22.1,21.2,00.0,31.2,23.7,06.1,0000.0,0004.90,0003.44,0003.18
2022-03-10 01:31:00,,0823.7,5.01,0.00,22.1,21.0,00.0,31.1,23.6,06.2,0000.0,0004.93,0003.45,0003.19
2022-03-10 01:32:00,,0823.6,4.99,0.00,22.0,20.8,00.0,31.1,23.5,06.2,0000.0,0004.79,0003.44,0003.20
2022-03-10 01:33:00,,0823.6,5.01,0.00,22.0,21.1,00.0,31.1,23.5,06.2,0000.0,0004.95,0003.48,0003.22
2022-03-10 01:34:00,,0823.6,5.01,0.00,22.1,22.0,00.0,31.1,23.8,06.2,0000.0,0005.14,0003.54,0003.25
2022-03-10 01:35:00,,0823.5,4.99,0.00,22.2,22.8,00.0,31.2,24.1,06.1,0000.0,0005.30,0003.57,0003.26
2022-03-10 01:36:00,,0823.5,4.99,0.00,22.3,22.6,00.0,31.2,24.2,06.1,0000.0,0005.41,0003.61,0003.29
2022-03-10 01:37:00,,0823.4,5.01,0.00,22.3,22.1,00.0,31.2,24.1,06.1,0000.0,0005.44,0003.63,0003.31
2022-03-10 01:38:00,,0823.4,5.00,0.00,22.2,21.7,00.0,31.2,23.9,06.1,0000.0,0005.48,0003.64,0003.31
2022-03-10 01:39:00,,0823.5,4.99,0.00,22.2,21.4,00.0,31.1,23.8,06.1,0000.0,0005.33,0003.62,0003.32
2022-03-10 01:40:00,,0823.5,5.01,0.00,22.1,21.1,00.0,31.1,23.7,06.1,0000.0,0005.19,0003.60,0003.33
2022-03-10 01:41:00,,0823.6,4.99,0.00,22.0,20.9,00.0,31.1,23.6,06.2,0000.0,0005.01,0003.61,0003.35
2022-03-10 01:42:00,,0823.6,5.00,0.00,21.9,20.7,00.0,31.1,23.5,06.2,0000.0,0005.06,0003.64,0003.37
2022-03-10 01:43:00,,0823.6,5.00,0.00,21.9,20.6,00.0,31.1,23.4,06.2,0000.0,0005.28,0003.66,0003.38
2022-03-10 01:44:00,,0823.6,5.01,0.00,21.9,21.2,00.0,31.1,23.5,06.2,0000.0,0005.17,0003.63,0003.38
2022-03-10 01:45:00,,0823.6,5.01,0.00,22.0,22.2,00.0,31.1,23.8,06.2,0000.0,0005.09,0003.62,0003.38
2022-03-10 01:46:00,,0823.7,5.00,0.00,22.2,22.8,00.0,31.1,24.1,06.1,0000.0,0004.93,0003.62,0003.40
2022-03-10 01:47:00,,0823.7,5.00,0.00,22.2,22.5,00.0,31.1,24.1,06.1,0000.0,0005.85,0003.61,0003.40
2022-03-10 01:48:00,,0823.7,4.99,0.00,22.2,22.0,00.0,31.1,24.0,06.1,0000.0,0006.03,0003.62,0003.40
2022-03-10 01:49:00,,0823.8,5.00,0.00,22.2,21.6,00.0,31.1,23.9,06.1,0000.0,0006.00,0003.61,0003.40
2022-03-10 01:50:00,,0823.8,5.00,0.00,22.1,21.4,00.0,31.1,23.8,06.1,0000.0,0006.15,0003.63,0003.41
2022-03-10 01:51:00,,0823.8,5.00,0.00,22.1,21.1,00.0,31.1,23.7,06.2,0000.0,0006.40,0003.67,0003.42
2022-03-10 01:52:00,,0823.7,5.00,0.00,22.0,20.9,00.0,31.1,23.6,06.2,0000.0,0006.57,0003.67,0003.42
2022-03-10 01:53:00,,0823.8,5.01,0.00,21.9,20.7,00.0,31.0,23.5,06.2,0000.0,0006.44,0003.64,0003.43
2022-03-10 01:54:00,,0823.8,4.99,0.00,21.9,20.5,00.0,31.0,23.4,06.2,0000.0,0006.55,0003.63,0003.43
2022-03-10 01:55:00,,0823.9,5.00,0.00,21.9,21.1,00.0,31.0,23.4,06.3,0000.0,0007.35,0003.65,0003.44
2022-03-10 01:56:00,,0823.9,5.01,0.00,22.0,21.9,00.0,31.0,23.7,06.2,0000.0,0007.38,0003.65,0003.44
2022-03-10 01:57:00,,0823.9,5.00,0.00,22.1,22.6,00.0,31.1,24.0,06.2,0000.0,0007.37,0003.65,0003.44
2022-03-10 01:58:00,,0823.9,5.00,0.00,22.2,22.5,00.0,31.1,24.1,06.2,0000.0,0006.78,0003.65,0003.45
2022-03-10 01:59:00,,0823.8,4.99,0.00,22.2,22.1,00.0,31.1,24.0,06.2,0000.0,0006.31,0003.66,0003.47
